Regional Weather Roundup
Issued by NWS Bismarck, ND

Home | Current Version | Previous Version | Text Only | Print | Product List | Glossary On
Versions: 1 2 3 4 5 6 7 8 9 10 11 12 13 14 15 16 17 18 19 20 21 22 23 24 25 26 27 28 29 30 31 32 33 34 35 36 37 38 39 40 41 42 43 44 45 46 47 48 49 50
000
ASUS43 KBIS 291702
RWRBIS

NWR BROADCAST TEXT
NATIONAL WEATHER SERVICE BISMARCK ND
1200 PM CDT SAT AUG 29 2015

NOTE: "FAIR" INDICATES FEW OR NO CLOUDS BELOW 12,000 FEET WITH NO
SIGNIFICANT WEATHER AND/OR OBSTRUCTIONS TO VISIBILITY.


CITY           SKY/WX    TMP DP  RH WIND       PRES   REMARKS
WILLISTON      PTSUNNY   78  55  44 S6        29.89F HAZE
MINOT          CLOUDY    80  58  46 SE6       29.89F HAZE
MINOT AFB      CLOUDY    78  58  50 S7        29.88F
BISMARCK       CLOUDY    78  63  59 CALM      29.95F
DICKINSON      SUNNY     90  39  16 S14       29.95F HAZE
GARRISON         N/A     79  59  50 S3        29.93F
HETTINGER ARPT SUNNY     88  49  25 S9        30.00S HAZE
JAMESTOWN      MOSUNNY   74  67  78 SW6       29.93F
HAZEN          FAIR      81  59  47 CALM      29.94F HAZE
OAKES            N/A     73  70  88 S12       29.96F
STANLEY        FAIR      82  52  34 SW8       29.91F
$$

CITY           SKY/WX    TMP DP  RH WIND       PRES   REMARKS
GRAND FORKS    MOSUNNY   73  66  78 S6        29.91S
GRAND FORKS AF MOSUNNY   76  68  77 S2        29.91S
DEVILS LAKE    PTSUNNY   72  63  73 S6        29.91S
FARGO          PTSUNNY   75  64  68 S14       29.95S
CAVALIER       CLOUDY    68  66  94 S6        29.90S
GRAFTON        CLOUDY    66  66 100 S8        29.91F FOG
GWINNER        FAIR      75  70  83 S13       29.97S
LANGDON        FAIR      77  68  73 S9        29.92S
$$

CITY           SKY/WX    TMP DP  RH WIND       PRES   REMARKS
ABERDEEN       SUNNY     74  66  76 S13       29.98S
MOBRIDGE       SUNNY     79  65  62 SE6       29.95F
RAPID CITY     SUNNY     81  60  48 SE6       30.05F
GLASGOW        CLOUDY    76  43  30 SE5       29.88F HAZE
SIDNEY         PTSUNNY   81  48  32 S12       29.89F
WOLF POINT     CLOUDY    77  48  35 S5        29.88F HAZE
GLENDIVE       MOSUNNY   77  48  36 S9        29.93F
MILES CITY     MOSUNNY   84  47  27 SE7       29.93F HAZE
BAKER          SUNNY     88  51  28 VRB6      29.98F HAZE
$$

CITY           SKY/WX    TMP DP  RH WIND       PRES   REMARKS
BILLINGS       PTSUNNY   75  47  36 S7        30.00F
GREAT FALLS    CLOUDY    82  39  21 SW13      29.87F HAZE
$$




USA.gov is the U.S. government's official web portal to all federal, state and local government web resources and services.